COSMOS 2426 (717)

Last updated on June 16, 2020, 5:15 a.m. UTC

1 29671U 06062B   20167.87717350 -.00000036  00000-0  10000-3 0  9997
2 29671  64.9682 267.9658 0020358 174.3743 306.2370  2.12962520104861
UTC
Height (km)
Latitude
Longitude
Inclination
Orbital Period
UTC large
Height (km)
Speed (km/s)
/
Latitude / Longitude
Inclination (degrees)
Orbital Period (minutes)
Azimuth
Elevation
Range (km)
Doppler Factor
iOS Compass Heading
iOS Angle

Next 30 passes for location: Hong Kong

Rise time Rise Azimuth (degrees) Set time Set Azimuth (degrees) Duration Max altitude (degrees)

No matching passes for this satellites